Tekamah, NE

1:37 AM CST on December 17, 2017 (GMT -0600)
Tekamah

Weather History for KTQE - March, 2014

Change the Weather History Date:

Monday, March 3, 2014

  Actual Average Record
Temperature  
Mean Temperature 4 °F -  
Max Temperature 18 °F 43 °F 74 °F (1992)
Min Temperature -9 °F 22 °F -9 °F (2002)
Degree Days  
Heating Degree Days 60    
Moisture  
Dew Point -5 °F    
Average Humidity 62    
Maximum Humidity 74    
Minimum Humidity 49    
Precipitation  
Precipitation 0.00 in - - ()
Sea Level Pressure  
Sea Level Pressure 30.44 in    
Wind  
Wind Speed 9 mph (South)    
Max Wind Speed 23 mph    
Max Gust Speed -    
Visibility 10 miles    
Events      
Averages and records for this station are not official NWS values.
T = Trace of Precipitation, MM = Missing Value Source: NWS Daily Summary

Daily Weather History Graph

Daily Weather History Graph

Search for Another Location

Airport or City:

Trip Planner

Search our weather history database for the weather conditions in past years. The results will help you decide how hot, cold, wet, or windy it might be!

Date:

Astronomy

Mar. 03, 2014 Rise Set
Actual Time 6:56 AM CST 6:17 PM CST
Civil Twilight 6:28 AM CST 6:45 PM CST
Nautical Twilight 5:56 AM CST 7:17 PM CST
Astronomical Twilight 5:24 AM CST 7:49 PM CST
Moon 8:02 AM CST (3/3) 9:25 PM CST (3/3)
Length of Visible Light 12h 16m
Length of Day
11h 21m
Waxing Crescent, 8% of the Moon is Illuminated
Mar 3
Waxing Crescent
Mar 8
First Quarter
Mar 16
Full
Mar 23
Last Quarter
Mar 30
New

Hourly Weather History & Observations

Time (CST) Temp. Windchill Dew Point Humidity Pressure Visibility Wind Dir Wind Speed Gust Speed Precip Events Conditions
12:54 AM -6.0 °F -18.6 °F -15.0 °F 65% 30.68 in 10.0 mi WNW 5.8 mph - N/A   Clear
1:54 AM -8.0 °F -21.0 °F -16.1 °F 68% 30.67 in 10.0 mi NW 5.8 mph - N/A   Clear
2:54 AM -7.1 °F -15.9 °F -15.0 °F 68% 30.65 in 10.0 mi NNW 3.5 mph - N/A   Clear
3:54 AM -8.0 °F - -15.0 °F 71% 30.61 in 10.0 mi Calm Calm - N/A   Clear
4:54 AM -9.0 °F -20.4 °F -16.1 °F 71% 30.61 in 10.0 mi NW 4.6 mph - N/A   Clear
5:54 AM -9.0 °F - -16.1 °F 71% 30.59 in 10.0 mi Calm Calm - N/A   Clear
6:54 AM -9.9 °F -21.5 °F -16.1 °F 74% 30.58 in 10.0 mi SSW 4.6 mph - N/A   Clear
7:54 AM -6.0 °F - -13.0 °F 72% 30.58 in 10.0 mi Calm Calm - N/A   Clear
8:54 AM -2.9 °F -13.3 °F -11.9 °F 65% 30.59 in 10.0 mi SSW 4.6 mph - N/A   Clear
9:54 AM 1.0 °F -12.9 °F -8.0 °F 66% 30.57 in 10.0 mi SSE 8.1 mph - N/A   Clear
10:54 AM 6.1 °F -7.8 °F -5.1 °F 60% 30.53 in 10.0 mi SSE 9.2 mph - N/A   Clear
11:54 AM 10.9 °F -5.9 °F -2.9 °F 54% 30.49 in 10.0 mi South 16.1 mph - N/A   Clear
12:54 PM 14.0 °F -2.5 °F -2.0 °F 49% 30.45 in 10.0 mi South 17.3 mph - N/A   Clear
1:54 PM 16.0 °F -2.1 °F -0.0 °F 49% 30.37 in 10.0 mi South 23.0 mph - N/A   Clear
2:54 PM 17.1 °F -0.3 °F 1.0 °F 50% 30.35 in 10.0 mi South 21.9 mph - N/A   Partly Cloudy
3:54 PM 17.1 °F -0.6 °F 1.9 °F 52% 30.30 in 10.0 mi SSE 23.0 mph - N/A   Overcast
4:54 PM 17.1 °F 0.1 °F 1.9 °F 52% 30.27 in 10.0 mi South 20.7 mph - N/A   Overcast
5:54 PM 17.1 °F 0.6 °F 1.9 °F 52% 30.27 in 10.0 mi South 19.6 mph - N/A   Overcast
6:54 PM 18.0 °F 3.1 °F 3.0 °F 52% 30.27 in 10.0 mi South 16.1 mph - N/A   Mostly Cloudy
7:54 PM 18.0 °F 6.1 °F 5.0 °F 57% 30.27 in 10.0 mi SSE 10.4 mph - N/A   Clear
8:54 PM 16.0 °F 0.6 °F 5.0 °F 62% 30.24 in 10.0 mi SE 16.1 mph - N/A   Clear
9:54 PM 14.0 °F -0.2 °F 3.9 °F 64% 30.24 in 10.0 mi SE 12.7 mph - N/A   Clear
10:54 PM 12.0 °F -2.0 °F 3.0 °F 67% 30.22 in 10.0 mi SSE 11.5 mph - N/A   Clear
11:54 PM 10.9 °F -2.6 °F 3.0 °F 70% 30.19 in 10.0 mi SSE 10.4 mph - N/A   Clear